Weather in Volodymyrivka

Ukraine / Kyiv Region     49°32′06″N   30°24′27″E
temp.,
°C
wind,
m/s
gust,
m/s
humid.,
%
clouds,
%
prec.,
mm/h
press.,
hPa
HPBL,
m
22 june, tue
tue2200:00+20ene11903 0.0 101311
03:00+19e22928 0.0 101330
06:00+19ne3591100 0.0 101294
09:00+23ene587446 0.0 1012289
12:00+25e69633 0.1 1013753
15:00+27ese566418 0.1 10131191
18:00+27e57737 0.0 1013789
21:00+21e3982100 0.4 1014180
23 june, wed
wed2300:00+20e487988 0.0 1014136
03:00+19ene228765 0.0 101411
06:00+19ne3588100 0.0 101488
09:00+23nne4776100 0.0 1014319
12:00+26ne5768100 0.0 1014706
15:00+28e456498 0.0 1014941
18:00+27e45749 0.0 1015719
21:00+23ene23865 0.0 101627
24 june, thu
thu2400:00+21ese22905 0.0 101623
03:00+19e3891100 0.1 1017157
06:00+20e228351 0.0 101731
09:00+24ene346557 0.0 1017256
12:00+28ne34637 0.0 1017771
15:00+30ne44569 0.0 10161189
18:00+29ene35676 0.0 1015984
21:00+24ne33833 0.0 101541
25 june, fri
fri2500:00+21e22830 0.0 101612
03:00+21ene228810 0.0 101516
06:00+21e229187 0.0 101544
09:00+25ese34795 0.0 1016437
12:00+29ese23585 0.0 10151100
15:00+30e445348 0.0 10151372
18:00+29ene246221 0.0 10141198
21:00+25se01760 0.1 101311
26 june, sat
sat2600:00+23se12783 0.0 101311
03:00+21e11858 0.3 101311
06:00+21ene228778 0.0 101321
09:00+26ese22746 0.0 1013386
12:00+30ese235416 1.7 10131434
15:00+30e225163 1.7 10131818
18:00+30sse23563 0.0 10101143
21:00+19nnw81393100 3.9 1015436